Location: Newark
(52.2090°N, 4.1550°W)
Time: 04:38:06
(UTC+00:00)

Explorer 7 - Pass Details

Date: 25 September 2019
Orbit: 485 x 680 km, 50.3° (Epoch: 17 October)

Event Time Altitude Azimuth Distance (km) Brightness Sun altitude
Rises 22:55:39 0° 254° (WSW) 2,810 - -36.6°
Reaches altitude 10° 22:57:52 10° 252° (WSW) 1,943 - -36.7°
Maximum altitude 23:02:18 66° 171° (S) 689 - -37.0°
Drops below altitude 10° 23:07:00 10° 89° (E) 2,059 - -37.2°
Sets 23:09:25 0° 87° (E) 2,993 - -37.4°
